アトラス彗星

C/2025 F1 ( ATLAS )

English version
Home page
Updated on August 10, 2025

---------------------------------------------------------------------

・ プロフィール

発見日 2025年3月22日
発見光度 19.1等
発見者 Asteroid Terrestrial-Impact Last Alert System (ATLAS) search program

・ 軌道要素

Epoch 2025 May 5.0 TT = JDT 2460800.5
T 2025 Apr. 20.47429 TT                                 Pike
q   1.0699688            (2000.0)            P               Q
z  +0.0034425      Peri.  334.23059     -0.60710271     +0.01476141
 +/-0.0001904      Node   122.70470     +0.78752684     +0.14450192
e   0.9963166      Incl.  109.23615     -0.10596122     +0.98939441
From 69 observations 2025 Mar. 22-Apr. 28, mean residual 0".6.

・ 光度変化

        m1 = 15.0 + 5 logΔ + 20 log r(t - 30)

---------------------------------------------------------------------

軌道要素はM.P.E.C. 2025-M120に掲載されたものです。
光度グラフはComet for Windowsで作成したものです。

---------------------------------------------------------------------

Copyright(C) Seiichi Yoshida (comet@aerith.net). All rights reserved.